298 
ASUS46 KSEW 261310
RWRWA 

WASHINGTON REGIONAL WEATHER ROUNDUP
NATIONAL WEATHER SERVICE SEATTLE WA
600 AM PDT TUE MAY 26 2015

NOTE:"FAIR" INDICATES FEW OR NO CLOUDS BELOW 12,000 FEET WITH NO 
SIGNIFICANT WEATHER AND/OR OBSTRUCTIONS TO VISIBILITY.

WAZ505-507>509-261400-
SEATTLE, TACOMA, EVERETT, AND VICINITY
  
CITY           SKY/WX    TMP DP  RH WIND       PRES   REMARKS
EVERETT        CLOUDY    53  50  89 CALM      30.04S                  
BOEING FIELD   CLOUDY    57  49  74 S3        30.05R                  
RENTON         CLOUDY    55  49  80 S6        30.04S                  
SEATAC AIRPORT CLOUDY    53  49  86 SW3       30.05S                  
JBLM-MCCHORD   CLOUDY    52  51  95 SW3       30.04S                  
PUYALLUP       CLOUDY    52  52 100 CALM      30.05R                  
BREMERTON      CLOUDY    50  50 100 SW3       30.07S                  
JBLM-FT LEWIS  CLOUDY    52  51  98 SW3       30.04S                  
TACOMA NARROWS CLOUDY    51  48  89 SW3       30.05R                  
$$
 
WAZ001-503-506-510-514-515-261400-
NORTH INTERIOR
  
CITY           SKY/WX    TMP DP  RH WIND       PRES   REMARKS
BELLINGHAM     CLOUDY    56  54  93 CALM      30.03R                  
FRIDAY HARBOR  CLOUDY    51  50  96 CALM      30.04S                  
EASTSOUND      MOCLDY    55  52  88 MISG      30.02R                  
PORT ANGELES   CLOUDY    53  49  86 NW5       30.04S                  
PORT TOWNSEND  CLOUDY    54  52  94 CALM      30.04S                  
NAS WHIDBEY    MOCLDY    55  52  89 CALM      30.08R                  
ARLINGTON      CLOUDY    54  46  76 CALM      30.05R                  
BURLINGTON     CLOUDY    52  52 100 CALM      30.04R                  
$$
 
WAZ020-022-039-040-504-511-512-261400-
SOUTHWEST INTERIOR
  
CITY           SKY/WX    TMP DP  RH WIND       PRES   REMARKS
SHELTON        CLOUDY    50  48  93 SW6       30.03S                  
OLYMPIA        CLOUDY    48  47  96 CALM      30.05S                  
CHEHALIS       CLOUDY    52  50  93 CALM      30.05S                  
KELSO          CLOUDY    54  46  76 CALM      30.09S                  
VANCOUVER      CLOUDY    54  47  77 NW5       30.04S                  
SCAPPOOSE, OR  CLOUDY    53  46  77 N5        30.04S                  
PORTLAND, OR   CLOUDY    54  48  80 NW6       30.05R                  
$$
 
WAZ021-516-517-261400-
WASHINGTON COAST
  
CITY           SKY/WX    TMP DP  RH WIND       PRES   REMARKS
FORKS          CLOUDY    51  51 100 CALM      30.05R FOG              
HOQUIAM        CLOUDY    52  51  97 CALM      30.05R FOG              
ASTORIA, OR    CLOUDY    52  50  93 S3        30.05S FOG              
$$
 
WAZ019-023-024-040-518-519-261400-
CASCADE MOUNTAINS AND COLUMBIA GORGE
  
CITY           SKY/WX    TMP DP  RH WIND       PRES   REMARKS
TROUTDALE, OR  CLOUDY    55  48  77 W3        30.03S                  
THE DALLES, OR CLEAR     56  45  66 W5        29.97R                  
$$

WAZ026-027-041>044-520-521-261400-
EAST SLOPES
  
CITY           SKY/WX    TMP DP  RH WIND       PRES   REMARKS
OMAK           MOCLDY    51  48  89 CALM      29.94R                  
WENATCHEE      CLOUDY    59  43  55 NW8       29.95R                  
ELLENSBURG     PTCLDY    53  44  71 NW12      29.96R                  
YAKIMA         PTCLDY    57  43  59 NW7       29.95S                  
$$

WAZ028-034-035-261400-
COLUMBIA BASIN
  
CITY           SKY/WX    TMP DP  RH WIND       PRES   REMARKS
EPHRATA        CLOUDY    58  48  69 CALM      29.93R                  
MOSES LAKE     CLOUDY    57  50  77 CALM      29.94R                  
PASCO          PTCLDY    55  49  80 W3        29.93R                  
HERMISTON, OR  MOCLDY    53  46  77 S5        29.95R                  
$$

WAZ036>038-261400-
NORTHEAST WASHINGTON
  
CITY           SKY/WX    TMP DP  RH WIND       PRES   REMARKS
SPOKANE GEIGER MOCLDY    52  49  89 CALM      29.94R                  
SPOKANE FELTS  MOCLDY    55  51  86 CALM      29.95R                  
FAIRCHILD AFB  LGT RAIN  50  50 100 CALM      29.94R                  
COEURDALENE,ID MOCLDY    54  48  82 E3        29.95R                  
DEER PARK      MOCLDY    50  48  93 MISG      29.95R                  
$$

WAZ029>033-261400-
SOUTHEAST WASHINGTON
  
CITY           SKY/WX    TMP DP  RH WIND       PRES   REMARKS
PULLMAN        CLOUDY    51  48  89 CALM      29.97R                  
LEWISTON, ID   CLOUDY    57  51  80 N5        29.94R                  
WALLA WALLA    CLOUDY    57  49  74 CALM      29.95R                  
PENDLETON, OR  PTCLDY    51  43  74 S3        29.95R                  
$$